• In Hungary
  • List of Countries
  • For 7 days
  • Water Temperature
  • Satellite Maps
  • Weather Map
  • News
  • Weather Widgets
  • user-avatar
    Login

    Hourly Weather Zurawnica

    Today, 19 July, Thursday

    Time Temperature Precipitation Wind Pressure Humidity
    00:00 +20°C° 0.6 mm 2 mps 735 mmHg 96%
    01:00 +20°C° 0.6 mm 2 mps 735 mmHg 96%
    02:00 +19°C° 0.6 mm 2 mps 736 mmHg 97%
    03:00 +19°C° 0.3 mm 3 mps 736 mmHg 97%
    04:00 +19°C° 0.3 mm 3 mps 736 mmHg 98%
    05:00 +19°C° 0.3 mm 3 mps 736 mmHg 98%
    06:00 +20°C° 0.1 mm 3 mps 736 mmHg 96%
    07:00 +20°C° 0.1 mm 3 mps 737 mmHg 95%
    08:00 +21°C° 0.1 mm 4 mps 737 mmHg 93%
    09:00 +22°C° 0.2 mm 4 mps 737 mmHg 90%
    10:00 +23°C° 0.2 mm 4 mps 737 mmHg 88%
    11:00 +23°C° 0.2 mm 4 mps 737 mmHg 85%
    12:00 +25°C° 0.6 mm 5 mps 737 mmHg 82%
    13:00 +25°C° 0.6 mm 5 mps 738 mmHg 79%
    14:00 +26°C° 0.6 mm 5 mps 738 mmHg 77%
    15:00 +26°C° 0.6 mm 5 mps 737 mmHg 77%
    16:00 +26°C° 0.6 mm 5 mps 737 mmHg 78%
    17:00 +26°C° 0.6 mm 5 mps 737 mmHg 78%
    18:00 +25°C° 0.4 mm 4 mps 737 mmHg 81%
    19:00 +22°C° 0.4 mm 4 mps 737 mmHg 85%
    20:00 +21°C° 0.4 mm 4 mps 737 mmHg 88%
    21:00 +21°C° 0.1 mm 4 mps 738 mmHg 90%
    22:00 +20°C° 0.1 mm 4 mps 738 mmHg 92%
    23:00 +19°C° 0.1 mm 3 mps 738 mmHg 93%

    Tomorrow, 20 July, Friday

    Time Temperature Precipitation Wind Pressure Humidity
    00:00 +19°C° 0 mm 3 mps 738 mmHg 94%
    01:00 +18°C° 0 mm 3 mps 738 mmHg 95%
    02:00 +18°C° 0 mm 3 mps 738 mmHg 95%
    03:00 +18°C° 0 mm 3 mps 738 mmHg 96%
    04:00 +17°C° 0 mm 3 mps 738 mmHg 96%
    05:00 +17°C° 0 mm 3 mps 738 mmHg 96%
    06:00 +18°C° 0 mm 3 mps 738 mmHg 93%
    07:00 +19°C° 0 mm 4 mps 738 mmHg 91%
    08:00 +20°C° 0 mm 4 mps 739 mmHg 88%
    09:00 +21°C° 0 mm 4 mps 739 mmHg 84%
    10:00 +22°C° 0 mm 4 mps 739 mmHg 81%
    11:00 +23°C° 0 mm 5 mps 739 mmHg 77%
    12:00 +25°C° 0 mm 5 mps 739 mmHg 71%
    13:00 +26°C° 0 mm 6 mps 739 mmHg 66%
    14:00 +27°C° 0 mm 6 mps 739 mmHg 61%
    15:00 +27°C° 0.1 mm 6 mps 739 mmHg 62%
    16:00 +26°C° 0.1 mm 6 mps 739 mmHg 63%
    17:00 +26°C° 0.1 mm 6 mps 738 mmHg 64%
    18:00 +25°C° 0.1 mm 5 mps 738 mmHg 69%
    19:00 +23°C° 0.1 mm 4 mps 738 mmHg 74%
    20:00 +21°C° 0.1 mm 3 mps 739 mmHg 79%
    21:00 +21°C° 0 mm 3 mps 739 mmHg 82%
    22:00 +20°C° 0 mm 3 mps 739 mmHg 84%
    23:00 +19°C° 0 mm 3 mps 739 mmHg 87%

    Day after tomorrow, 21 July, Saturday

    Time Temperature Precipitation Wind Pressure Humidity
    00:00 +18°C° 0 mm 3 mps 739 mmHg 89%
    01:00 +18°C° 0 mm 3 mps 739 mmHg 91%
    02:00 +17°C° 0 mm 3 mps 739 mmHg 94%
    03:00 +17°C° 0 mm 3 mps 739 mmHg 95%
    04:00 +17°C° 0 mm 3 mps 739 mmHg 96%
    05:00 +16°C° 0 mm 3 mps 739 mmHg 97%
    06:00 +17°C° 0 mm 3 mps 740 mmHg 91%
    07:00 +19°C° 0 mm 3 mps 740 mmHg 86%
    08:00 +20°C° 0 mm 3 mps 740 mmHg 80%
    09:00 +21°C° 0 mm 3 mps 740 mmHg 74%
    10:00 +23°C° 0 mm 4 mps 740 mmHg 67%
    11:00 +25°C° 0 mm 4 mps 740 mmHg 61%
    12:00 +26°C° 0 mm 4 mps 740 mmHg 59%
    13:00 +26°C° 0 mm 4 mps 740 mmHg 58%
    14:00 +27°C° 0 mm 4 mps 740 mmHg 56%
    15:00 +27°C° 0.1 mm 4 mps 739 mmHg 56%
    16:00 +26°C° 0.1 mm 3 mps 739 mmHg 57%
    17:00 +26°C° 0.1 mm 3 mps 739 mmHg 58%
    18:00 +25°C° 0 mm 3 mps 739 mmHg 63%
    19:00 +23°C° 0 mm 2 mps 739 mmHg 68%
    20:00 +21°C° 0 mm 2 mps 739 mmHg 73%
    21:00 +21°C° 0 mm 1 mps 739 mmHg 75%
    22:00 +20°C° 0 mm 1 mps 739 mmHg 77%
    23:00 +19°C° 0 mm 1 mps 739 mmHg 79%

    22 July, Sunday

    Time Temperature Precipitation Wind Pressure Humidity
    00:00 +18°C° 0 mm 1 mps 739 mmHg 81%
    01:00 +18°C° 0 mm 1 mps 739 mmHg 82%
    02:00 +16°C° 0 mm 1 mps 739 mmHg 83%
    03:00 +16°C° 0 mm 1 mps 739 mmHg 84%
    04:00 +16°C° 0 mm 1 mps 739 mmHg 85%
    05:00 +15°C° 0 mm 1 mps 739 mmHg 86%
    06:00 +18°C° 0 mm 1 mps 739 mmHg 81%
    07:00 +20°C° 0 mm 1 mps 739 mmHg 75%
    08:00 +22°C° 0 mm 1 mps 739 mmHg 69%
    09:00 +23°C° 0 mm 1 mps 739 mmHg 63%
    10:00 +25°C° 0 mm 2 mps 739 mmHg 58%
    11:00 +26°C° 0 mm 2 mps 739 mmHg 52%
    12:00 +26°C° 0 mm 2 mps 739 mmHg 50%
    13:00 +27°C° 0 mm 2 mps 738 mmHg 48%
    14:00 +27°C° 0 mm 2 mps 738 mmHg 46%
    15:00 +27°C° 0 mm 2 mps 738 mmHg 47%
    16:00 +27°C° 0 mm 2 mps 738 mmHg 48%
    17:00 +27°C° 0 mm 2 mps 738 mmHg 49%
    18:00 +26°C° 0 mm 2 mps 738 mmHg 55%
    19:00 +24°C° 0 mm 2 mps 738 mmHg 62%
    20:00 +23°C° 0 mm 1 mps 738 mmHg 68%
    21:00 +22°C° 0 mm 1 mps 738 mmHg 71%
    22:00 +21°C° 0 mm 1 mps 738 mmHg 74%
    23:00 +20°C° 0 mm 1 mps 738 mmHg 76%

    23 July, Monday

    Time Temperature Precipitation Wind Pressure Humidity
    00:00 +19°C° 0 mm 1 mps 738 mmHg 80%
    01:00 +18°C° 0 mm 2 mps 738 mmHg 83%
    02:00 +17°C° 0 mm 2 mps 738 mmHg 86%
    03:00 +17°C° 0 mm 2 mps 738 mmHg 88%
    04:00 +17°C° 0 mm 2 mps 738 mmHg 90%
    05:00 +17°C° 0 mm 2 mps 738 mmHg 92%
    06:00 +18°C° 0 mm 2 mps 739 mmHg 88%
    07:00 +19°C° 0 mm 2 mps 739 mmHg 84%
    08:00 +21°C° 0 mm 3 mps 739 mmHg 80%
    09:00 +22°C° 0.2 mm 3 mps 739 mmHg 76%
    10:00 +24°C° 0.2 mm 3 mps 739 mmHg 72%
    11:00 +25°C° 0.2 mm 3 mps 739 mmHg 67%
    12:00 +26°C° 0.2 mm 3 mps 739 mmHg 64%
    13:00 +27°C° 0.2 mm 3 mps 739 mmHg 61%
    14:00 +27°C° 0.2 mm 4 mps 739 mmHg 58%
    15:00 +27°C° 0.4 mm 4 mps 739 mmHg 60%
    16:00 +27°C° 0.4 mm 3 mps 739 mmHg 62%
    17:00 +27°C° 0.4 mm 3 mps 739 mmHg 63%
    18:00 +25°C° 0.2 mm 3 mps 739 mmHg 68%
    19:00 +24°C° 0.2 mm 2 mps 739 mmHg 73%
    20:00 +23°C° 0.2 mm 2 mps 740 mmHg 78%
    21:00 +21°C° 0 mm 2 mps 740 mmHg 80%
    22:00 +20°C° 0 mm 2 mps 740 mmHg 82%
    23:00 +19°C° 0 mm 2 mps 740 mmHg 84%

    24 July, Tuesday

    Time Temperature Precipitation Wind Pressure Humidity
    00:00 +18°C° 0 mm 2 mps 740 mmHg 86%
    01:00 +18°C° 0 mm 2 mps 740 mmHg 87%
    02:00 +17°C° 0 mm 2 mps 740 mmHg 89%
    03:00 +17°C° 0 mm 2 mps 741 mmHg 90%
    04:00 +17°C° 0 mm 2 mps 741 mmHg 91%
    05:00 +17°C° 0 mm 2 mps 741 mmHg 92%
    06:00 +19°C° 0 mm 1 mps 741 mmHg 87%
    07:00 +21°C° 0 mm 1 mps 742 mmHg 82%
    08:00 +22°C° 0 mm 1 mps 742 mmHg 77%
    09:00 +24°C° 0.1 mm 2 mps 742 mmHg 71%
    10:00 +25°C° 0.1 mm 2 mps 742 mmHg 65%
    11:00 +27°C° 0.1 mm 2 mps 742 mmHg 58%
    12:00 +27°C° 0.1 mm 2 mps 742 mmHg 56%
    13:00 +28°C° 0.1 mm 2 mps 742 mmHg 54%
    14:00 +28°C° 0.1 mm 2 mps 742 mmHg 52%
    15:00 +28°C° 0.3 mm 2 mps 742 mmHg 54%
    16:00 +28°C° 0.3 mm 3 mps 741 mmHg 56%
    17:00 +27°C° 0.3 mm 3 mps 741 mmHg 59%
    18:00 +26°C° 0.2 mm 2 mps 741 mmHg 65%
    19:00 +24°C° 0.2 mm 2 mps 742 mmHg 72%
    20:00 +23°C° 0.2 mm 1 mps 742 mmHg 79%
    21:00 +22°C° 0 mm 1 mps 742 mmHg 80%
    22:00 +21°C° 0 mm 1 mps 742 mmHg 82%
    23:00 +20°C° 0 mm 1 mps 743 mmHg 83%
    Show more